Year,Month,Day,Hour,Minute,Value (Times are PST for temperature in C)
2015,08,04,00,00,15.30
2015,08,04,00,01,15.30
2015,08,04,00,02,15.30
2015,08,04,00,03,15.30
2015,08,04,00,04,15.30
2015,08,04,00,05,15.30
2015,08,04,00,06,15.30
2015,08,04,00,07,15.30
2015,08,04,00,08,15.30
2015,08,04,00,09,15.30
2015,08,04,00,10,15.30
2015,08,04,00,11,15.30
2015,08,04,00,12,15.30
2015,08,04,00,13,15.30
2015,08,04,00,14,15.30
2015,08,04,00,15,15.30
2015,08,04,00,16,15.30
2015,08,04,00,17,15.30
2015,08,04,00,18,15.30
2015,08,04,00,19,15.30
2015,08,04,00,20,15.30
2015,08,04,00,21,15.30
2015,08,04,00,22,15.30
2015,08,04,00,23,15.30
2015,08,04,00,24,15.30
2015,08,04,00,25,15.30
2015,08,04,00,26,15.30
2015,08,04,00,27,15.30
2015,08,04,00,28,15.30
2015,08,04,00,29,15.30
2015,08,04,00,30,15.30
2015,08,04,00,31,15.30
2015,08,04,00,32,15.30
2015,08,04,00,33,15.30
2015,08,04,00,34,15.30
2015,08,04,00,35,15.30
2015,08,04,00,36,15.30
2015,08,04,00,37,15.30
2015,08,04,00,38,15.30
2015,08,04,00,39,15.30
2015,08,04,00,40,15.30
2015,08,04,00,41,15.30
2015,08,04,00,42,15.30
2015,08,04,00,43,15.20
2015,08,04,00,44,15.20
2015,08,04,00,45,15.20
2015,08,04,00,46,15.20
2015,08,04,00,47,15.20
2015,08,04,00,48,15.20
2015,08,04,00,49,15.20
2015,08,04,00,50,15.20
2015,08,04,00,51,15.20
2015,08,04,00,52,15.20
2015,08,04,00,53,15.20
2015,08,04,00,54,15.10
2015,08,04,00,55,15.10
2015,08,04,00,56,15.10
2015,08,04,00,57,15.10
2015,08,04,00,58,15.10
2015,08,04,00,59,15.10
2015,08,04,01,00,15.10
2015,08,04,01,01,15.10
2015,08,04,01,02,15.10
2015,08,04,01,03,15.10
2015,08,04,01,04,15.10
2015,08,04,01,05,15.10
2015,08,04,01,06,15.10
2015,08,04,01,07,15.10
2015,08,04,01,08,15.10
2015,08,04,01,09,15.10
2015,08,04,01,10,15.10
2015,08,04,01,11,15.10
2015,08,04,01,12,15.10
2015,08,04,01,13,15.10
2015,08,04,01,14,15.10
2015,08,04,01,15,15.10
2015,08,04,01,16,15.10
2015,08,04,01,17,15.10
2015,08,04,01,18,15.10
2015,08,04,01,19,15.10
2015,08,04,01,20,15.10
2015,08,04,01,21,15.10
2015,08,04,01,22,15.10
2015,08,04,01,23,15.10
2015,08,04,01,24,15.10
2015,08,04,01,25,15.10
2015,08,04,01,26,15.10
2015,08,04,01,27,15.10
2015,08,04,01,28,15.10
2015,08,04,01,29,15.10
2015,08,04,01,30,15.10
2015,08,04,01,31,15.10
2015,08,04,01,32,15.20
2015,08,04,01,33,15.20
2015,08,04,01,34,15.20
2015,08,04,01,35,15.20
2015,08,04,01,36,15.20
2015,08,04,01,37,15.20
2015,08,04,01,38,15.20
2015,08,04,01,39,15.20
2015,08,04,01,40,15.20
2015,08,04,01,41,15.20
2015,08,04,01,42,15.20
2015,08,04,01,43,15.20
2015,08,04,01,44,15.30
2015,08,04,01,45,15.30
2015,08,04,01,46,15.30
2015,08,04,01,47,15.30
2015,08,04,01,48,15.30
2015,08,04,01,49,15.30
2015,08,04,01,50,15.30
2015,08,04,01,51,15.30
2015,08,04,01,52,15.30
2015,08,04,01,53,15.30
2015,08,04,01,54,15.30
2015,08,04,01,55,15.30
2015,08,04,01,56,15.30
2015,08,04,01,57,15.30
2015,08,04,01,58,15.30
2015,08,04,01,59,15.40
2015,08,04,02,00,15.40
2015,08,04,02,01,15.40
2015,08,04,02,02,15.40
2015,08,04,02,03,15.40
2015,08,04,02,04,15.40
2015,08,04,02,05,15.40
2015,08,04,02,06,15.40
2015,08,04,02,07,15.40
2015,08,04,02,08,15.40
2015,08,04,02,09,15.40
2015,08,04,02,10,15.40
2015,08,04,02,11,15.40
2015,08,04,02,12,15.50
2015,08,04,02,13,15.50
2015,08,04,02,14,15.50
2015,08,04,02,15,15.50
2015,08,04,02,16,15.50
2015,08,04,02,17,15.50
2015,08,04,02,18,15.50
2015,08,04,02,19,15.50
2015,08,04,02,20,15.50
2015,08,04,02,21,15.50
2015,08,04,02,22,15.50
2015,08,04,02,23,15.50
2015,08,04,02,24,15.50
2015,08,04,02,25,15.50
2015,08,04,02,26,15.50
2015,08,04,02,27,15.50
2015,08,04,02,28,15.50
2015,08,04,02,29,15.50
2015,08,04,02,30,15.50
2015,08,04,02,31,15.50
2015,08,04,02,32,15.50
2015,08,04,02,33,15.50
2015,08,04,02,34,15.50
2015,08,04,02,35,15.50
2015,08,04,02,36,15.50
2015,08,04,02,37,15.50
2015,08,04,02,38,15.50
2015,08,04,02,39,15.50
2015,08,04,02,40,15.50
2015,08,04,02,41,15.50
2015,08,04,02,42,15.50
2015,08,04,02,43,15.50
2015,08,04,02,44,15.50
2015,08,04,02,45,15.50
2015,08,04,02,46,15.50
2015,08,04,02,47,15.50
2015,08,04,02,48,15.50
2015,08,04,02,49,15.50
2015,08,04,02,50,15.50
2015,08,04,02,51,15.60
2015,08,04,02,52,15.60
2015,08,04,02,53,15.60
2015,08,04,02,54,15.60
2015,08,04,02,55,15.60
2015,08,04,02,56,15.60
2015,08,04,02,57,15.60
2015,08,04,02,58,15.60
2015,08,04,02,59,15.60
2015,08,04,03,00,15.60
2015,08,04,03,01,15.60
2015,08,04,03,02,15.60
2015,08,04,03,03,15.70
2015,08,04,03,04,15.70
2015,08,04,03,05,15.70
2015,08,04,03,06,15.70
2015,08,04,03,07,15.70
2015,08,04,03,08,15.70
2015,08,04,03,09,15.70
2015,08,04,03,10,15.70
2015,08,04,03,11,15.60
2015,08,04,03,12,15.60
2015,08,04,03,13,15.60
2015,08,04,03,14,15.60
2015,08,04,03,15,15.60
2015,08,04,03,16,15.60
2015,08,04,03,17,15.60
2015,08,04,03,18,15.60
2015,08,04,03,19,15.60
2015,08,04,03,20,15.60
2015,08,04,03,21,15.60
2015,08,04,03,22,15.60
2015,08,04,03,23,15.60
2015,08,04,03,24,15.60
2015,08,04,03,25,15.60
2015,08,04,03,26,15.60
2015,08,04,03,27,15.60
2015,08,04,03,28,15.60
2015,08,04,03,29,15.60
2015,08,04,03,30,15.60
2015,08,04,03,31,15.60
2015,08,04,03,32,15.60
2015,08,04,03,33,15.60
2015,08,04,03,34,15.60
2015,08,04,03,35,15.60
2015,08,04,03,36,15.60
2015,08,04,03,37,15.60
2015,08,04,03,38,15.60
2015,08,04,03,39,15.60
2015,08,04,03,40,15.60
2015,08,04,03,41,15.70
2015,08,04,03,42,15.70
2015,08,04,03,43,15.70
2015,08,04,03,44,15.70
2015,08,04,03,45,15.70
2015,08,04,03,46,15.70
2015,08,04,03,47,15.70
2015,08,04,03,48,15.70
2015,08,04,03,49,15.80
2015,08,04,03,50,15.80
2015,08,04,03,51,15.80
2015,08,04,03,52,15.80
2015,08,04,03,53,15.80
2015,08,04,03,54,15.80
2015,08,04,03,55,15.80
2015,08,04,03,56,15.80
2015,08,04,03,57,15.80
2015,08,04,03,58,15.80
2015,08,04,03,59,15.80
2015,08,04,04,00,15.80
2015,08,04,04,01,15.80
2015,08,04,04,02,15.80
2015,08,04,04,03,15.80
2015,08,04,04,04,15.80
2015,08,04,04,05,15.80
2015,08,04,04,06,15.80
2015,08,04,04,07,15.80
2015,08,04,04,08,15.80
2015,08,04,04,09,15.80
2015,08,04,04,10,15.80
2015,08,04,04,11,15.80
2015,08,04,04,12,15.80
2015,08,04,04,13,15.80
2015,08,04,04,14,15.80
2015,08,04,04,15,15.80
2015,08,04,04,16,15.80
2015,08,04,04,17,15.80
2015,08,04,04,18,15.80
2015,08,04,04,19,15.80
2015,08,04,04,20,15.80
2015,08,04,04,21,15.80
2015,08,04,04,22,15.80
2015,08,04,04,23,15.80
2015,08,04,04,24,15.80
2015,08,04,04,25,15.80
2015,08,04,04,26,15.80
2015,08,04,04,27,15.80
2015,08,04,04,28,15.80
2015,08,04,04,29,15.90
2015,08,04,04,30,15.90
2015,08,04,04,31,15.90
2015,08,04,04,32,15.90
2015,08,04,04,33,15.90
2015,08,04,04,34,15.90
2015,08,04,04,35,15.90
2015,08,04,04,36,15.90
2015,08,04,04,37,15.90
2015,08,04,04,38,16.00
2015,08,04,04,39,16.10
2015,08,04,04,40,16.10
2015,08,04,04,41,16.10
2015,08,04,04,42,16.10
2015,08,04,04,43,16.10
2015,08,04,04,44,16.10
2015,08,04,04,45,16.10
2015,08,04,04,46,16.10
2015,08,04,04,47,16.20
2015,08,04,04,48,16.20
2015,08,04,04,49,16.20
2015,08,04,04,50,16.20
2015,08,04,04,51,16.20
2015,08,04,04,52,16.20
2015,08,04,04,53,16.20
2015,08,04,04,54,16.30
2015,08,04,04,55,16.30
2015,08,04,04,56,16.30
2015,08,04,04,57,16.30
2015,08,04,04,58,16.30
2015,08,04,04,59,16.30
2015,08,04,05,00,16.30
2015,08,04,05,01,16.40
2015,08,04,05,02,16.40
2015,08,04,05,03,16.40
2015,08,04,05,04,16.40
2015,08,04,05,05,16.40
2015,08,04,05,06,16.40
2015,08,04,05,07,16.30
2015,08,04,05,08,16.30
2015,08,04,05,09,16.20
2015,08,04,05,10,16.10
2015,08,04,05,11,16.10
2015,08,04,05,12,16.00
2015,08,04,05,13,15.90
2015,08,04,05,14,15.80
2015,08,04,05,15,15.80
2015,08,04,05,16,15.70
2015,08,04,05,17,15.70
2015,08,04,05,18,15.60
2015,08,04,05,19,15.50
2015,08,04,05,20,15.50
2015,08,04,05,21,15.40
2015,08,04,05,22,15.30
2015,08,04,05,23,15.20
2015,08,04,05,24,15.20
2015,08,04,05,25,15.10
2015,08,04,05,26,15.00
2015,08,04,05,27,15.00
2015,08,04,05,28,15.00
2015,08,04,05,29,14.90
2015,08,04,05,30,14.80
2015,08,04,05,31,14.80
2015,08,04,05,32,14.80
2015,08,04,05,33,14.80
2015,08,04,05,34,14.70
2015,08,04,05,35,14.70
2015,08,04,05,36,14.60
2015,08,04,05,37,14.60
2015,08,04,05,38,14.60
2015,08,04,05,39,14.50
2015,08,04,05,40,14.50
2015,08,04,05,41,14.50
2015,08,04,05,42,14.40
2015,08,04,05,43,14.40
2015,08,04,05,44,14.40
2015,08,04,05,45,14.30
2015,08,04,05,46,14.30
2015,08,04,05,47,14.30
2015,08,04,05,48,14.20
2015,08,04,05,49,14.20
2015,08,04,05,50,14.20
2015,08,04,05,51,14.20
2015,08,04,05,52,14.20
2015,08,04,05,53,14.20
2015,08,04,05,54,14.10
2015,08,04,05,55,14.10
2015,08,04,05,56,14.10
2015,08,04,05,57,14.00
2015,08,04,05,58,14.00
2015,08,04,05,59,14.00
2015,08,04,06,00,14.00
2015,08,04,06,01,13.90
2015,08,04,06,02,13.90
2015,08,04,06,03,13.90
2015,08,04,06,04,13.90
2015,08,04,06,05,13.90
2015,08,04,06,06,13.80
2015,08,04,06,07,13.80
2015,08,04,06,08,13.80
2015,08,04,06,09,13.80
2015,08,04,06,10,13.80
2015,08,04,06,11,13.70
2015,08,04,06,12,13.70
2015,08,04,06,13,13.70
2015,08,04,06,14,13.70
2015,08,04,06,15,13.70
2015,08,04,06,16,13.70
2015,08,04,06,17,13.70
2015,08,04,06,18,13.70
2015,08,04,06,19,13.70
2015,08,04,06,20,13.70
2015,08,04,06,21,13.70
2015,08,04,06,22,13.60
2015,08,04,06,23,13.60
2015,08,04,06,24,13.60
2015,08,04,06,25,13.60
2015,08,04,06,26,13.50
2015,08,04,06,27,13.50
2015,08,04,06,28,13.50
2015,08,04,06,29,13.50
2015,08,04,06,30,13.50
2015,08,04,06,31,13.50
2015,08,04,06,32,13.50
2015,08,04,06,33,13.50
2015,08,04,06,34,13.50
2015,08,04,06,35,13.50
2015,08,04,06,36,13.50
2015,08,04,06,37,13.50
2015,08,04,06,38,13.50
2015,08,04,06,39,13.60
2015,08,04,06,40,13.60
2015,08,04,06,41,13.60
2015,08,04,06,42,13.70
2015,08,04,06,43,13.70
2015,08,04,06,44,13.70
2015,08,04,06,45,13.70
2015,08,04,06,46,13.80
2015,08,04,06,47,13.80
2015,08,04,06,48,13.80
2015,08,04,06,49,13.90
2015,08,04,06,50,13.90
2015,08,04,06,51,14.00
2015,08,04,06,52,14.00
2015,08,04,06,53,14.00
2015,08,04,06,54,14.10
2015,08,04,06,55,14.20
2015,08,04,06,56,14.20
2015,08,04,06,57,14.20
2015,08,04,06,58,14.30
2015,08,04,06,59,14.40
2015,08,04,07,00,14.40
2015,08,04,07,01,14.50
2015,08,04,07,02,14.60
2015,08,04,07,03,14.60
2015,08,04,07,04,14.70
2015,08,04,07,05,14.70
2015,08,04,07,06,14.70
2015,08,04,07,07,14.80
2015,08,04,07,08,14.80
2015,08,04,07,09,14.80
2015,08,04,07,10,14.90
2015,08,04,07,11,15.00
2015,08,04,07,12,15.00
2015,08,04,07,13,15.10
2015,08,04,07,14,15.10
2015,08,04,07,15,15.10
2015,08,04,07,16,15.20
2015,08,04,07,17,15.20
2015,08,04,07,18,15.20
2015,08,04,07,19,15.30
2015,08,04,07,20,15.30
2015,08,04,07,21,15.30
2015,08,04,07,22,15.40
2015,08,04,07,23,15.50
2015,08,04,07,24,15.60
2015,08,04,07,25,15.70
2015,08,04,07,26,15.70
2015,08,04,07,27,15.80
2015,08,04,07,28,15.90
2015,08,04,07,29,16.00
2015,08,04,07,30,16.10
2015,08,04,07,31,16.10
2015,08,04,07,32,16.20
2015,08,04,07,33,16.30
2015,08,04,07,34,16.40
2015,08,04,07,35,16.50
2015,08,04,07,36,16.60
2015,08,04,07,37,16.70
2015,08,04,07,38,16.70
2015,08,04,07,39,16.70
2015,08,04,07,40,16.80
2015,08,04,07,41,16.80
2015,08,04,07,42,16.90
2015,08,04,07,43,17.00
2015,08,04,07,44,17.00
2015,08,04,07,45,17.10
2015,08,04,07,46,17.10
2015,08,04,07,47,17.20
2015,08,04,07,48,17.20
2015,08,04,07,49,17.30
2015,08,04,07,50,17.30
2015,08,04,07,51,17.30
2015,08,04,07,52,17.30
2015,08,04,07,53,17.30
2015,08,04,07,54,17.30
2015,08,04,07,55,17.30
2015,08,04,07,56,17.30
2015,08,04,07,57,17.30
2015,08,04,07,58,17.30
2015,08,04,07,59,17.30
2015,08,04,08,00,17.30
2015,08,04,08,01,17.30
2015,08,04,08,02,17.20
2015,08,04,08,03,17.20
2015,08,04,08,04,17.20
2015,08,04,08,05,17.20
2015,08,04,08,06,17.10
2015,08,04,08,07,17.00
2015,08,04,08,08,17.00
2015,08,04,08,09,16.90
2015,08,04,08,10,16.90
2015,08,04,08,11,16.80
2015,08,04,08,12,16.80
2015,08,04,08,13,16.70
2015,08,04,08,14,16.70
2015,08,04,08,15,16.70
2015,08,04,08,16,16.70
2015,08,04,08,17,16.70
2015,08,04,08,18,16.70
2015,08,04,08,19,16.80
2015,08,04,08,20,16.80
2015,08,04,08,21,16.90
2015,08,04,08,22,16.90
2015,08,04,08,23,16.90
2015,08,04,08,24,16.90
2015,08,04,08,25,16.80
2015,08,04,08,26,16.90
2015,08,04,08,27,16.90
2015,08,04,08,28,16.90
2015,08,04,08,29,16.90
2015,08,04,08,30,16.90
2015,08,04,08,31,17.00
2015,08,04,08,32,17.00
2015,08,04,08,33,17.10
2015,08,04,08,34,17.10
2015,08,04,08,35,17.20
2015,08,04,08,36,17.20
2015,08,04,08,37,17.30
2015,08,04,08,38,17.30
2015,08,04,08,39,17.30
2015,08,04,08,40,17.30
2015,08,04,08,41,17.30
2015,08,04,08,42,17.30
2015,08,04,08,43,17.30
2015,08,04,08,44,17.40
2015,08,04,08,45,17.50
2015,08,04,08,46,17.50
2015,08,04,08,47,17.50
2015,08,04,08,48,17.60
2015,08,04,08,49,17.50
2015,08,04,08,50,17.50
2015,08,04,08,51,17.50
2015,08,04,08,52,17.60
2015,08,04,08,53,17.60
2015,08,04,08,54,17.70
2015,08,04,08,55,17.80
2015,08,04,08,56,17.80
2015,08,04,08,57,17.80
2015,08,04,08,58,17.90
2015,08,04,08,59,18.00
2015,08,04,09,00,18.10
2015,08,04,09,01,18.20
2015,08,04,09,02,18.30
2015,08,04,09,03,18.30
2015,08,04,09,04,18.40
2015,08,04,09,05,18.50
2015,08,04,09,06,18.50
2015,08,04,09,07,18.60
2015,08,04,09,08,18.70
2015,08,04,09,09,18.70
2015,08,04,09,10,18.50
2015,08,04,09,11,18.40
2015,08,04,09,12,18.30
2015,08,04,09,13,18.20
2015,08,04,09,14,18.20
2015,08,04,09,15,18.20
2015,08,04,09,16,18.20
2015,08,04,09,17,18.20
2015,08,04,09,18,18.20
2015,08,04,09,19,18.20
2015,08,04,09,20,18.20
2015,08,04,09,21,18.20
2015,08,04,09,22,18.00
2015,08,04,09,23,17.90
2015,08,04,09,24,17.80
2015,08,04,09,25,17.80
2015,08,04,09,26,17.90
2015,08,04,09,27,17.90
2015,08,04,09,28,17.90
2015,08,04,09,29,18.10
2015,08,04,09,30,18.20
2015,08,04,09,31,18.30
2015,08,04,09,32,18.40
2015,08,04,09,33,18.40
2015,08,04,09,34,18.50
2015,08,04,09,35,18.50
2015,08,04,09,36,18.50
2015,08,04,09,37,18.50
2015,08,04,09,38,18.50
2015,08,04,09,39,18.40
2015,08,04,09,40,18.40
2015,08,04,09,41,18.50
2015,08,04,09,42,18.50
2015,08,04,09,43,18.50
2015,08,04,09,44,18.50
2015,08,04,09,45,18.60
2015,08,04,09,46,18.50
2015,08,04,09,47,18.40
2015,08,04,09,48,18.30
2015,08,04,09,49,18.30
2015,08,04,09,50,18.20
2015,08,04,09,51,18.20
2015,08,04,09,52,18.20
2015,08,04,09,53,18.20
2015,08,04,09,54,18.30
2015,08,04,09,55,18.30
2015,08,04,09,56,18.30
2015,08,04,09,57,18.40
2015,08,04,09,58,18.50
2015,08,04,09,59,18.60
2015,08,04,10,00,18.60
2015,08,04,10,01,18.70
2015,08,04,10,02,18.70
2015,08,04,10,03,18.70
2015,08,04,10,04,18.70
2015,08,04,10,05,18.70
2015,08,04,10,06,18.80
2015,08,04,10,07,18.80
2015,08,04,10,08,18.80
2015,08,04,10,09,18.80
2015,08,04,10,10,18.80
2015,08,04,10,11,18.80
2015,08,04,10,12,18.80
2015,08,04,10,13,18.90
2015,08,04,10,14,19.10
2015,08,04,10,15,19.20
2015,08,04,10,16,19.20
2015,08,04,10,17,19.30
2015,08,04,10,18,19.30
2015,08,04,10,19,19.20
2015,08,04,10,20,19.20
2015,08,04,10,21,19.20
2015,08,04,10,22,19.20
2015,08,04,10,23,19.30
2015,08,04,10,24,19.40
2015,08,04,10,25,19.40
2015,08,04,10,26,19.50
2015,08,04,10,27,19.50
2015,08,04,10,28,19.40
2015,08,04,10,29,19.50
2015,08,04,10,30,19.50
2015,08,04,10,31,19.40
2015,08,04,10,32,19.40
2015,08,04,10,33,19.30
2015,08,04,10,34,19.20
2015,08,04,10,35,19.20
2015,08,04,10,36,19.10
2015,08,04,10,37,19.10
2015,08,04,10,38,19.20
2015,08,04,10,39,19.30
2015,08,04,10,40,19.50
2015,08,04,10,41,19.60
2015,08,04,10,42,19.70
2015,08,04,10,43,19.80
2015,08,04,10,44,19.90
2015,08,04,10,45,20.00
2015,08,04,10,46,20.10
2015,08,04,10,47,20.20
2015,08,04,10,48,20.20
2015,08,04,10,49,20.30
2015,08,04,10,50,20.40
2015,08,04,10,51,20.40
2015,08,04,10,52,20.40
2015,08,04,10,53,20.50
2015,08,04,10,54,20.50
2015,08,04,10,55,20.50
2015,08,04,10,56,20.60
2015,08,04,10,57,20.60
2015,08,04,10,58,20.80
2015,08,04,10,59,20.80
2015,08,04,11,00,20.90
2015,08,04,11,01,21.00
2015,08,04,11,02,21.00
2015,08,04,11,03,21.00
2015,08,04,11,04,21.10
2015,08,04,11,05,21.10
2015,08,04,11,06,21.20
2015,08,04,11,07,21.20
2015,08,04,11,08,21.30
2015,08,04,11,09,21.30
2015,08,04,11,10,21.40
2015,08,04,11,11,21.40
2015,08,04,11,12,21.40
2015,08,04,11,13,21.40
2015,08,04,11,14,21.50
2015,08,04,11,15,21.60
2015,08,04,11,16,21.60
2015,08,04,11,17,21.70
2015,08,04,11,18,21.60
2015,08,04,11,19,21.40
2015,08,04,11,20,21.30
2015,08,04,11,21,21.30
2015,08,04,11,22,21.30
2015,08,04,11,23,21.40
2015,08,04,11,24,21.50
2015,08,04,11,25,21.50
2015,08,04,11,26,21.40
2015,08,04,11,27,21.30
2015,08,04,11,28,21.30
2015,08,04,11,29,21.30
2015,08,04,11,30,21.30
2015,08,04,11,31,21.30
2015,08,04,11,32,21.30
2015,08,04,11,33,21.30
2015,08,04,11,34,21.30
2015,08,04,11,35,21.20
2015,08,04,11,36,21.20
2015,08,04,11,37,21.10
2015,08,04,11,38,21.10
2015,08,04,11,39,21.00
2015,08,04,11,40,21.00
2015,08,04,11,41,21.10
2015,08,04,11,42,21.10
2015,08,04,11,43,21.20
2015,08,04,11,44,21.20
2015,08,04,11,45,21.20
2015,08,04,11,46,21.20
2015,08,04,11,47,21.30
2015,08,04,11,48,21.30
2015,08,04,11,49,21.40
2015,08,04,11,50,21.40
2015,08,04,11,51,21.50
2015,08,04,11,52,21.60
2015,08,04,11,53,21.50
2015,08,04,11,54,21.40
2015,08,04,11,55,21.40
2015,08,04,11,56,21.40
2015,08,04,11,57,21.10
2015,08,04,11,58,21.00
2015,08,04,11,59,21.00
2015,08,04,12,00,20.90
2015,08,04,12,01,20.70
2015,08,04,12,02,20.50
2015,08,04,12,03,20.40
2015,08,04,12,04,20.30
2015,08,04,12,05,20.30
2015,08,04,12,06,20.30
2015,08,04,12,07,20.40
2015,08,04,12,08,20.50
2015,08,04,12,09,20.60
2015,08,04,12,10,20.60
2015,08,04,12,11,20.50
2015,08,04,12,12,20.50
2015,08,04,12,13,20.60
2015,08,04,12,14,20.70
2015,08,04,12,15,20.80
2015,08,04,12,16,20.80
2015,08,04,12,17,20.80
2015,08,04,12,18,20.80
2015,08,04,12,19,20.80
2015,08,04,12,20,20.90
2015,08,04,12,21,20.90
2015,08,04,12,22,20.90
2015,08,04,12,23,20.80
2015,08,04,12,24,20.80
2015,08,04,12,25,20.80
2015,08,04,12,26,20.80
2015,08,04,12,27,20.90
2015,08,04,12,28,21.00
2015,08,04,12,29,21.10
2015,08,04,12,30,21.10
2015,08,04,12,31,21.10
2015,08,04,12,32,21.10
2015,08,04,12,33,21.10
2015,08,04,12,34,21.00
2015,08,04,12,35,20.70
2015,08,04,12,36,20.50
2015,08,04,12,37,20.20
2015,08,04,12,38,20.10
2015,08,04,12,39,20.00
2015,08,04,12,40,19.90
2015,08,04,12,41,19.90
2015,08,04,12,42,19.80
2015,08,04,12,43,19.70
2015,08,04,12,44,19.70
2015,08,04,12,45,19.70
2015,08,04,12,46,19.90
2015,08,04,12,47,19.90
2015,08,04,12,48,20.10
2015,08,04,12,49,20.20
2015,08,04,12,50,20.20
2015,08,04,12,51,20.10
2015,08,04,12,52,20.10
2015,08,04,12,53,20.00
2015,08,04,12,54,19.90
2015,08,04,12,55,19.90
2015,08,04,12,56,19.80
2015,08,04,12,57,19.80
2015,08,04,12,58,19.80
2015,08,04,12,59,19.80
2015,08,04,13,00,19.70
2015,08,04,13,01,19.40
2015,08,04,13,02,19.30
2015,08,04,13,03,19.30
2015,08,04,13,04,19.40
2015,08,04,13,05,19.40
2015,08,04,13,06,19.20
2015,08,04,13,07,19.20
2015,08,04,13,08,19.20
2015,08,04,13,09,19.30
2015,08,04,13,10,19.40
2015,08,04,13,11,19.40
2015,08,04,13,12,19.30
2015,08,04,13,13,19.10
2015,08,04,13,14,19.10
2015,08,04,13,15,19.10
2015,08,04,13,16,19.20
2015,08,04,13,17,19.20
2015,08,04,13,18,19.20
2015,08,04,13,19,19.10
2015,08,04,13,20,19.10
2015,08,04,13,21,19.10
2015,08,04,13,22,19.10
2015,08,04,13,23,19.10
2015,08,04,13,24,19.00
2015,08,04,13,25,18.90
2015,08,04,13,26,18.90
2015,08,04,13,27,18.90
2015,08,04,13,28,18.90
2015,08,04,13,29,18.80
2015,08,04,13,30,18.70
2015,08,04,13,31,18.60
2015,08,04,13,32,18.70
2015,08,04,13,33,18.70
2015,08,04,13,34,18.60
2015,08,04,13,35,18.60
2015,08,04,13,36,18.70
2015,08,04,13,37,18.80
2015,08,04,13,38,18.60
2015,08,04,13,39,18.60
2015,08,04,13,40,18.60
2015,08,04,13,41,18.60
2015,08,04,13,42,18.60
2015,08,04,13,43,18.60
2015,08,04,13,44,18.70
2015,08,04,13,45,18.70
2015,08,04,13,46,18.70
2015,08,04,13,47,18.80
2015,08,04,13,48,18.80
2015,08,04,13,49,18.70
2015,08,04,13,50,18.60
2015,08,04,13,51,18.70
2015,08,04,13,52,18.70
2015,08,04,13,53,18.60
2015,08,04,13,54,18.60
2015,08,04,13,55,18.60
2015,08,04,13,56,18.30
2015,08,04,13,57,17.80
2015,08,04,13,58,17.50
2015,08,04,13,59,17.20
2015,08,04,14,00,17.00
2015,08,04,14,01,17.00
2015,08,04,14,02,17.00
2015,08,04,14,03,17.10
2015,08,04,14,04,17.20
2015,08,04,14,05,17.30
2015,08,04,14,06,17.30
2015,08,04,14,07,17.50
2015,08,04,14,08,17.60
2015,08,04,14,09,17.60
2015,08,04,14,10,17.70
2015,08,04,14,11,17.80
2015,08,04,14,12,17.80
2015,08,04,14,13,17.90
2015,08,04,14,14,18.10
2015,08,04,14,15,18.20
2015,08,04,14,16,18.30
2015,08,04,14,17,18.40
2015,08,04,14,18,18.50
2015,08,04,14,19,18.60
2015,08,04,14,20,18.70
2015,08,04,14,21,18.90
2015,08,04,14,22,18.90
2015,08,04,14,23,19.00
2015,08,04,14,24,19.10
2015,08,04,14,25,19.20
2015,08,04,14,26,19.20
2015,08,04,14,27,19.30
2015,08,04,14,28,19.30
2015,08,04,14,29,19.40
2015,08,04,14,30,19.40
2015,08,04,14,31,19.50
2015,08,04,14,32,19.60
2015,08,04,14,33,19.70
2015,08,04,14,34,19.80
2015,08,04,14,35,19.70
2015,08,04,14,36,19.70
2015,08,04,14,37,19.70
2015,08,04,14,38,19.70
2015,08,04,14,39,19.80
2015,08,04,14,40,19.80
2015,08,04,14,41,19.80
2015,08,04,14,42,19.80
2015,08,04,14,43,19.80
2015,08,04,14,44,19.80
2015,08,04,14,45,19.90
2015,08,04,14,46,19.90
2015,08,04,14,47,20.00
2015,08,04,14,48,20.10
2015,08,04,14,49,20.20
2015,08,04,14,50,20.30
2015,08,04,14,51,20.40
2015,08,04,14,52,20.60
2015,08,04,14,53,20.80
2015,08,04,14,54,21.00
2015,08,04,14,55,21.20
2015,08,04,14,56,21.20
2015,08,04,14,57,21.20
2015,08,04,14,58,21.40
2015,08,04,14,59,21.60
2015,08,04,15,00,21.80
2015,08,04,15,01,22.00
2015,08,04,15,02,22.20
2015,08,04,15,03,22.40
2015,08,04,15,04,22.50
2015,08,04,15,05,22.70
2015,08,04,15,06,22.80
2015,08,04,15,07,22.90
2015,08,04,15,08,23.00
2015,08,04,15,09,23.20
2015,08,04,15,10,23.30
2015,08,04,15,11,23.30
2015,08,04,15,12,23.30
2015,08,04,15,13,23.30
2015,08,04,15,14,23.30
2015,08,04,15,15,23.30
2015,08,04,15,16,23.40
2015,08,04,15,17,23.40
2015,08,04,15,18,23.50
2015,08,04,15,19,23.60
2015,08,04,15,20,23.60
2015,08,04,15,21,23.60
2015,08,04,15,22,23.60
2015,08,04,15,23,23.60
2015,08,04,15,24,23.60
2015,08,04,15,25,23.60
2015,08,04,15,26,23.60
2015,08,04,15,27,23.70
2015,08,04,15,28,23.70
2015,08,04,15,29,23.70
2015,08,04,15,30,23.70
2015,08,04,15,31,23.70
2015,08,04,15,32,23.70
2015,08,04,15,33,23.70
2015,08,04,15,34,23.70
2015,08,04,15,35,23.70
2015,08,04,15,36,23.80
2015,08,04,15,37,23.80
2015,08,04,15,38,23.90
2015,08,04,15,39,24.00
2015,08,04,15,40,24.10
2015,08,04,15,41,24.30
2015,08,04,15,42,24.40
2015,08,04,15,43,24.40
2015,08,04,15,44,24.50
2015,08,04,15,45,24.50
2015,08,04,15,46,24.60
2015,08,04,15,47,24.50
2015,08,04,15,48,24.40
2015,08,04,15,49,24.30
2015,08,04,15,50,24.30
2015,08,04,15,51,24.20
2015,08,04,15,52,24.20
2015,08,04,15,53,24.20
2015,08,04,15,54,24.20
2015,08,04,15,55,24.10
2015,08,04,15,56,24.10
2015,08,04,15,57,24.10
2015,08,04,15,58,24.10
2015,08,04,15,59,24.10
2015,08,04,16,00,24.10
2015,08,04,16,01,24.10
2015,08,04,16,02,24.10
2015,08,04,16,03,24.10
2015,08,04,16,04,24.10
2015,08,04,16,05,24.10
2015,08,04,16,06,24.10
2015,08,04,16,07,23.90
2015,08,04,16,08,23.90
2015,08,04,16,09,23.80
2015,08,04,16,10,23.70
2015,08,04,16,11,23.70
2015,08,04,16,12,23.60
2015,08,04,16,13,23.50
2015,08,04,16,14,23.40
2015,08,04,16,15,23.40
2015,08,04,16,16,23.40
2015,08,04,16,17,23.40
2015,08,04,16,18,23.40
2015,08,04,16,19,23.40
2015,08,04,16,20,23.40
2015,08,04,16,21,23.40
2015,08,04,16,22,23.40
2015,08,04,16,23,23.30
2015,08,04,16,24,23.30
2015,08,04,16,25,23.30
2015,08,04,16,26,23.30
2015,08,04,16,27,23.30
2015,08,04,16,28,23.30
2015,08,04,16,29,23.30
2015,08,04,16,30,23.40
2015,08,04,16,31,23.40
2015,08,04,16,32,23.40
2015,08,04,16,33,23.40
2015,08,04,16,34,23.40
2015,08,04,16,35,23.30
2015,08,04,16,36,23.30
2015,08,04,16,37,23.30
2015,08,04,16,38,23.30
2015,08,04,16,39,23.30
2015,08,04,16,40,23.30
2015,08,04,16,41,23.30
2015,08,04,16,42,23.30
2015,08,04,16,43,23.20
2015,08,04,16,44,23.20
2015,08,04,16,45,23.10
2015,08,04,16,46,23.10
2015,08,04,16,47,23.10
2015,08,04,16,48,23.10
2015,08,04,16,49,23.20
2015,08,04,16,50,23.30
2015,08,04,16,51,23.40
2015,08,04,16,52,23.40
2015,08,04,16,53,23.40
2015,08,04,16,54,23.40
2015,08,04,16,55,23.30
2015,08,04,16,56,23.20
2015,08,04,16,57,23.00
2015,08,04,16,58,22.90
2015,08,04,16,59,22.70
2015,08,04,17,00,22.60
2015,08,04,17,01,22.60
2015,08,04,17,02,22.60
2015,08,04,17,03,22.50
2015,08,04,17,04,22.50
2015,08,04,17,05,22.50
2015,08,04,17,06,22.50
2015,08,04,17,07,22.50
2015,08,04,17,08,22.50
2015,08,04,17,09,22.50
2015,08,04,17,10,22.60
2015,08,04,17,11,22.60
2015,08,04,17,12,22.70
2015,08,04,17,13,22.70
2015,08,04,17,14,22.60
2015,08,04,17,15,22.50
2015,08,04,17,16,22.50
2015,08,04,17,17,22.50
2015,08,04,17,18,22.50
2015,08,04,17,19,22.50